Wind_Speed
24 24 20 25 23 21 22 22 19 16 18 18 19 14 21 25 21 23 28 28 27 28 28 27 28 29 30 32 32 33 34 36 37 39 41 43 45 47 50 56 58 60 61 63
27 24 26 25 24 24 24 23 21 20 20 21 20 15 17 25 24 22 27 29 26 26 26 25 25 28 30 33 34 34 36 37 38 41 42 44 45 47 51 56 58 60 61 61
28 26 26 26 25 25 24 25 23 23 23 23 21 15 15 21 24 27 27 26 24 22 23 24 25 27 29 30 31 33 35 38 39 41 43 44 45 47 52 55 58 59 59 60
31 27 27 27 27 28 26 27 27 27 26 24 23 13 9 16 25 27 28 26 25 25 26 26 27 30 31 30 30 32 34 36 40 42 42 43 44 47 52 54 57 57 57 60
30 29 30 30 29 30 26 27 29 31 31 26 22 21 9 20 23 24 29 30 30 30 27 29 30 31 30 31 31 33 35 38 39 41 41 42 43 47 51 53 55 55 56 59
33 31 32 32 32 32 30 29 33 34 34 31 25 27 9 25 26 26 25 27 28 29 29 30 30 30 31 31 33 35 35 37 39 39 39 41 42 47 49 53 55 54 54 57
34 35 34 34 35 35 32 33 37 40 38 37 28 26 20 28 29 30 28 26 28 30 29 28 28 29 30 31 34 34 34 37 38 38 39 41 42 47 49 52 53 52 53 56
38 37 36 36 37 37 39 38 38 43 44 42 36 23 17 30 31 33 34 30 27 30 29 27 25 28 30 30 32 34 34 36 36 37 39 40 43 46 49 51 51 50 51 53
40 43 39 40 40 41 42 42 39 44 47 47 45 31 19 25 29 33 37 37 32 31 29 30 28 29 29 30 30 33 34 35 36 37 38 39 42 46 49 50 49 49 49 51
44 44 44 43 45 46 46 42 43 43 47 50 49 43 25 26 27 33 37 38 39 36 32 31 30 29 31 30 31 34 34 35 36 36 36 38 41 45 48 49 47 47 47 49
47 48 49 48 47 45 47 47 42 43 48 48 48 48 41 29 30 33 34 38 40 43 39 36 31 30 32 32 32 35 36 36 37 36 36 38 41 44 46 48 45 45 44 47
51 53 56 56 53 50 50 50 47 45 46 47 49 48 45 35 29 37 37 39 42 44 48 48 44 33 32 32 33 35 37 38 38 37 37 38 41 42 45 46 43 43 42 45
57 58 57 58 57 56 52 49 48 46 48 53 52 51 47 41 36 32 34 37 41 45 49 53 52 51 39 34 35 36 37 39 38 38 39 39 40 39 42 43 41 40 40 43
63 62 61 60 60 60 59 54 52 52 55 55 56 54 47 44 43 36 37 37 38 43 50 52 53 53 43 40 40 38 40 39 38 38 39 39 38 38 39 40 39 38 38 40
56 55 56 58 59 62 60 61 57 55 54 60 59 58 52 51 42 40 43 43 43 46 50 51 51 51 48 44 43 41 41 40 38 37 37 37 36 37 37 37 36 36 36 39
44 47 50 52 55 59 59 60 64 64 65 63 61 64 55 51 50 45 41 46 47 46 47 49 49 51 49 46 44 44 40 39 38 38 38 37 37 37 35 35 34 34 35 37
42 43 42 46 47 51 55 56 57 59 66 66 68 63 53 53 52 49 49 46 45 46 45 46 45 47 45 45 46 43 40 39 39 40 38 38 37 36 33 33 33 32 33 36
38 36 38 42 44 52 52 48 49 54 56 59 61 60 56 50 55 55 50 51 46 45 41 38 40 44 46 47 45 45 42 40 39 38 38 38 36 36 31 32 31 29 30 34
39 38 38 40 42 45 46 40 39 46 48 51 49 48 52 56 53 45 52 44 40 37 37 36 38 42 45 46 46 45 42 40 38 39 37 35 35 34 31 31 30 27 28 32
50 47 46 46 49 48 42 37 39 42 46 34 37 39 38 39 38 37 38 39 36 36 36 35 36 39 40 41 42 42 40 40 41 41 38 34 32 33 31 31 29 26 27 30
55 56 54 50 50 47 39 38 39 42 40 40 38 38 35 31 31 32 31 32 31 31 31 32 35 38 42 44 44 43 40 37 38 38 38 32 31 33 32 31 28 24 25 28
62 60 57 59 54 47 37 39 39 40 44 42 39 34 28 26 24 26 28 30 32 33 32 31 32 33 34 37 39 40 40 36 36 36 32 28 31 32 32 31 28 21 23 26
68 62 61 63 61 54 50 48 47 47 48 51 51 46 44 39 39 38 36 33 34 33 35 35 32 32 31 29 30 33 35 33 31 31 31 29 30 32 32 32 28 21 21 24
67 66 67 65 59 57 55 57 60 59 58 58 58 60 54 52 50 46 42 41 37 35 34 39 39 35 36 32 30 32 32 30 29 30 29 29 33 33 34 31 29 22 19 21
73 75 73 74 65 68 67 61 61 63 63 66 65 65 65 63 58 53 50 47 42 40 41 40 40 40 38 35 32 32 31 30 29 30 29 30 34 35 34 31 29 22 18 19
75 74 76 73 68 70 72 71 69 68 67 66 66 66 67 69 68 64 57 54 51 48 49 47 45 43 40 38 33 32 31 30 30 30 30 32 35 36 34 32 29 23 17 17
Wind_Direction
246 245 248 249 256 260 264 271 274 275 284 287 293 306 298 299 293 284 284 287 294 294 299 299 296 296 298 298 302 303 307 306 310 312 314 316 317 318 321 325 327 329 329 331
243 248 249 253 259 263 264 267 272 279 281 284 287 300 295 291 291 283 286 292 297 305 306 302 299 298 299 303 304 308 308 310 312 313 314 315 317 319 322 325 328 329 331 331
247 248 250 256 259 261 265 269 272 278 281 287 292 291 289 282 281 279 282 289 297 300 300 302 301 297 299 302 306 305 308 310 311 311 312 315 317 320 323 326 329 330 332 331
246 247 252 254 255 258 260 270 276 282 284 285 292 283 267 282 277 281 283 292 295 297 300 301 304 305 306 306 304 305 306 308 309 311 312 315 317 320 325 328 330 330 333 332
247 245 247 250 253 261 266 271 277 282 285 288 297 290 267 282 281 284 283 281 286 294 297 302 305 307 307 308 307 305 306 307 309 311 313 314 318 321 325 329 331 331 334 334
249 248 249 253 256 258 263 267 273 278 282 284 289 288 284 284 282 281 277 281 283 285 291 297 301 305 309 309 308 306 305 307 310 312 313 315 317 321 325 330 331 332 335 336
252 252 253 255 256 258 262 265 270 275 280 283 279 284 294 280 279 283 288 287 287 288 290 294 299 304 307 307 305 305 304 306 310 312 314 315 318 323 326 331 332 333 335 337
250 253 255 254 256 259 259 262 267 276 279 280 276 274 279 280 284 285 286 289 287 287 291 294 295 296 299 301 303 303 304 306 310 313 314 315 319 324 327 331 332 333 335 339
248 247 250 255 255 255 257 259 266 269 275 279 282 280 270 278 282 285 285 286 289 287 290 295 296 294 295 299 301 301 304 307 312 312 312 313 318 323 326 331 332 333 335 340
243 246 247 247 250 251 255 258 261 264 272 276 280 282 277 280 285 281 281 284 288 290 291 287 288 290 295 301 301 301 303 305 310 311 311 312 316 321 325 330 331 332 335 341
243 247 247 249 250 253 253 256 259 263 265 270 276 283 286 280 283 281 282 283 287 291 294 290 285 288 294 300 302 300 301 304 309 311 312 311 315 320 324 329 329 332 335 343
246 247 248 250 253 253 254 254 254 262 269 270 270 271 278 282 275 282 286 284 284 287 291 291 292 291 291 297 299 298 300 304 308 309 310 312 314 320 324 327 328 331 335 344
251 253 252 254 255 258 258 263 264 262 262 266 266 269 274 275 274 273 275 277 279 282 284 287 293 295 299 298 298 300 302 305 307 307 309 311 313 318 322 325 325 328 334 343
251 250 253 255 255 255 256 258 260 261 263 270 272 272 269 270 274 277 273 272 273 275 279 282 285 289 299 299 298 300 301 304 305 305 308 311 311 314 320 322 323 326 331 341
252 254 254 254 254 254 254 254 258 258 262 262 267 268 270 271 273 270 276 277 274 273 274 279 284 288 292 295 298 299 299 301 301 303 307 308 307 311 317 319 319 322 328 338
255 255 256 256 256 255 254 255 255 256 258 260 267 270 274 278 279 280 274 271 275 275 276 278 282 288 290 295 297 297 296 297 300 302 304 302 305 307 313 314 315 319 326 336
250 253 255 257 257 255 255 256 257 261 261 262 263 269 274 275 275 275 270 274 278 279 282 284 287 287 290 290 292 293 292 293 296 299 299 298 301 304 308 310 311 316 325 333
242 247 248 252 253 252 261 265 263 263 265 268 269 269 274 274 269 270 279 279 280 282 284 284 281 279 279 282 285 288 291 291 294 296 294 297 296 300 303 305 306 313 322 332
243 246 246 251 254 257 258 262 264 264 266 268 274 275 272 274 276 277 274 278 274 271 270 269 270 273 277 280 284 287 289 291 293 292 292 293 296 295 298 300 301 308 319 329
255 249 249 255 257 259 261 255 260 264 264 274 270 271 274 274 274 274 272 271 268 268 268 269 269 271 274 279 283 285 286 288 290 290 288 289 294 289 295 295 297 305 315 325
252 252 252 253 257 256 259 262 260 260 276 271 267 268 272 275 272 269 269 272 272 272 272 268 265 267 271 277 282 286 289 293 292 290 291 289 287 288 291 293 293 299 312 322
256 251 254 255 256 254 257 257 256 262 269 272 270 271 273 269 256 257 261 264 272 274 274 274 278 283 282 283 285 287 289 290 287 290 287 284 284 288 288 288 288 293 307 319
253 255 258 258 257 256 254 253 257 261 262 265 267 266 268 266 263 265 266 267 272 276 278 278 279 281 284 287 290 288 287 285 284 284 284 279 280 284 285 286 284 287 302 316
251 252 257 258 255 259 259 258 260 260 262 265 268 269 266 265 266 265 266 269 274 275 279 282 282 281 283 283 287 289 285 286 286 284 280 278 279 282 283 283 282 281 295 313
253 254 254 256 254 258 261 261 260 259 259 260 262 265 267 268 269 270 270 270 272 277 275 278 283 283 279 279 281 283 284 287 287 282 280 281 281 280 284 279 277 274 288 308
257 258 259 260 258 255 256 258 259 257 256 259 263 264 266 268 271 271 269 268 272 276 280 280 277 278 281 278 278 279 283 287 287 283 282 282 282 283 285 278 275 267 280 302
Height
5787 5789 5790 5788 5789 5790 5790 5790 5790 5789 5787 5787 5785 5786 5782 5778 5779 5777 5775 5774 5773 5771 5770 5768 5766 5763 5761 5757 5754 5749 5746 5741 5736 5731 5726 5720 5714 5707 5699 5691 5681 5670 5660 5647
5782 5784 5784 5784 5785 5785 5784 5783 5785 5785 5783 5781 5780 5781 5779 5772 5771 5770 5769 5768 5769 5768 5765 5763 5760 5758 5756 5753 5749 5745 5741 5736 5732 5726 5720 5714 5708 5701 5693 5685 5675 5664 5652 5640
5775 5777 5778 5779 5780 5780 5779 5779 5779 5779 5778 5775 5776 5775 5774 5768 5766 5763 5763 5763 5763 5762 5760 5758 5755 5752 5749 5746 5743 5739 5735 5731 5726 5720 5714 5708 5702 5695 5687 5678 5668 5657 5646 5633
5769 5771 5772 5773 5774 5773 5773 5773 5772 5772 5772 5770 5770 5769 5769 5764 5759 5759 5758 5758 5757 5756 5754 5752 5749 5747 5744 5741 5737 5733 5729 5724 5720 5715 5708 5702 5696 5689 5681 5671 5661 5651 5640 5628
5764 5764 5764 5765 5767 5767 5770 5767 5765 5764 5764 5767 5767 5764 5765 5757 5755 5753 5752 5752 5751 5750 5747 5745 5743 5740 5737 5735 5731 5727 5723 5718 5714 5708 5702 5696 5691 5684 5675 5666 5655 5645 5634 5622
5755 5757 5758 5759 5760 5759 5762 5761 5758 5756 5756 5759 5761 5759 5762 5752 5749 5747 5746 5745 5744 5743 5741 5738 5736 5733 5731 5728 5725 5721 5717 5712 5708 5702 5696 5691 5685 5678 5669 5660 5650 5639 5628 5617
5747 5748 5750 5752 5752 5753 5754 5755 5751 5749 5748 5749 5754 5754 5756 5748 5744 5741 5740 5740 5738 5736 5735 5732 5730 5727 5724 5722 5718 5715 5711 5706 5701 5696 5691 5685 5679 5672 5663 5654 5644 5633 5623 5612
5737 5739 5741 5744 5744 5746 5744 5746 5747 5739 5739 5738 5741 5748 5750 5742 5739 5737 5735 5733 5732 5730 5728 5726 5724 5720 5717 5715 5712 5708 5704 5700 5695 5690 5685 5679 5673 5666 5658 5649 5639 5629 5619 5609
5727 5725 5730 5733 5735 5737 5736 5736 5741 5735 5731 5728 5729 5738 5743 5738 5735 5732 5729 5727 5726 5724 5723 5721 5718 5714 5710 5708 5704 5701 5697 5693 5689 5684 5679 5674 5668 5661 5652 5644 5635 5625 5615 5605
5715 5716 5718 5720 5722 5723 5725 5730 5729 5730 5724 5720 5718 5721 5733 5733 5731 5727 5723 5721 5718 5715 5715 5714 5711 5708 5704 5701 5698 5694 5690 5687 5682 5677 5673 5668 5661 5655 5647 5639 5630 5620 5611 5602
5703 5706 5708 5709 5711 5715 5716 5716 5720 5722 5717 5715 5713 5713 5717 5726 5722 5718 5717 5714 5711 5706 5705 5703 5703 5701 5698 5695 5692 5687 5684 5681 5676 5671 5666 5661 5655 5648 5641 5634 5625 5616 5607 5598
5690 5692 5694 5696 5699 5702 5704 5707 5710 5710 5710 5707 5704 5704 5707 5714 5716 5710 5709 5706 5703 5700 5695 5691 5690 5694 5693 5690 5685 5681 5677 5674 5670 5664 5659 5655 5648 5642 5635 5628 5620 5612 5604 5595
5676 5678 5683 5686 5689 5690 5695 5700 5702 5702 5698 5692 5692 5694 5698 5701 5704 5704 5702 5698 5696 5693 5689 5683 5680 5679 5684 5683 5679 5674 5670 5666 5662 5657 5653 5648 5642 5636 5629 5623 5615 5608 5600 5592
5659 5664 5668 5673 5677 5680 5682 5686 5689 5688 5683 5685 5684 5685 5691 5692 5692 5696 5692 5692 5689 5684 5679 5675 5672 5669 5675 5674 5672 5668 5663 5658 5655 5650 5646 5641 5636 5630 5623 5617 5611 5604 5596 5588
5646 5652 5655 5659 5662 5666 5671 5674 5675 5673 5675 5668 5673 5670 5679 5680 5685 5683 5682 5680 5678 5673 5669 5667 5664 5663 5663 5662 5662 5659 5654 5650 5647 5643 5638 5634 5629 5623 5618 5612 5606 5600 5592 5585
5634 5636 5640 5645 5647 5649 5655 5660 5656 5659 5659 5658 5660 5661 5665 5671 5669 5670 5667 5664 5664 5664 5661 5658 5657 5656 5652 5652 5650 5649 5645 5641 5638 5634 5630 5626 5622 5617 5612 5606 5601 5596 5589 5582
5621 5624 5627 5631 5634 5633 5638 5643 5644 5647 5645 5647 5644 5654 5655 5654 5654 5653 5650 5649 5650 5652 5652 5650 5647 5647 5644 5641 5639 5638 5635 5632 5629 5626 5622 5618 5615 5611 5606 5600 5596 5592 5586 5579
5608 5612 5612 5615 5615 5615 5630 5634 5635 5633 5635 5634 5635 5637 5638 5637 5635 5635 5640 5638 5639 5639 5640 5638 5637 5635 5634 5631 5629 5627 5625 5623 5619 5617 5613 5610 5608 5605 5600 5595 5591 5587 5582 5576
5599 5601 5601 5600 5602 5610 5617 5623 5627 5621 5621 5619 5625 5622 5620 5621 5623 5625 5622 5626 5626 5626 5626 5626 5625 5623 5622 5621 5619 5617 5616 5614 5610 5608 5605 5602 5600 5597 5592 5588 5585 5582 5577 5572
5586 5589 5591 5589 5592 5598 5612 5612 5611 5613 5607 5610 5608 5608 5609 5609 5610 5611 5612 5612 5613 5614 5614 5614 5613 5612 5611 5611 5609 5608 5606 5604 5602 5599 5596 5595 5592 5589 5586 5582 5579 5577 5573 5568
5573 5573 5575 5578 5579 5590 5603 5602 5603 5603 5603 5596 5597 5597 5597 5599 5601 5600 5601 5602 5603 5604 5604 5603 5602 5602 5601 5601 5600 5599 5597 5596 5593 5590 5588 5586 5585 5582 5579 5576 5574 5571 5569 5564
5556 5562 5564 5566 5566 5578 5594 5589 5589 5589 5583 5584 5586 5587 5589 5589 5590 5592 5594 5594 5595 5595 5594 5594 5594 5594 5593 5592 5591 5590 5587 5586 5584 5581 5579 5578 5577 5575 5572 5568 5567 5566 5563 5560
5535 5546 5551 5553 5558 5570 5574 5576 5574 5575 5572 5569 5570 5577 5579 5580 5580 5583 5584 5585 5586 5587 5588 5589 5589 5587 5585 5584 5583 5581 5577 5575 5574 5572 5571 5570 5569 5567 5564 5562 5561 5559 5557 5556
5521 5529 5529 5533 5552 5556 5558 5559 5555 5555 5556 5555 5556 5559 5565 5566 5568 5572 5573 5574 5576 5578 5578 5578 5578 5578 5575 5575 5574 5572 5569 5568 5565 5564 5563 5562 5561 5559 5557 5555 5554 5552 5551 5551
5509 5512 5518 5517 5535 5538 5539 5543 5541 5536 5538 5538 5540 5542 5547 5551 5556 5558 5561 5563 5565 5567 5566 5569 5568 5567 5566 5566 5566 5563 5562 5560 5558 5556 5555 5554 5553 5551 5549 5548 5548 5547 5545 5545
5493 5499 5498 5506 5514 5514 5515 5517 5518 5518 5519 5522 5526 5529 5532 5536 5540 5544 5548 5549 5551 5553 5555 5555 5556 5556 5556 5557 5555 5554 5553 5552 5550 5549 5548 5546 5545 5543 5541 5540 5541 5540 5539 5539